(198739) = 2005 EN32

Discovered at Catalina on 2005-03-03 by CSS.

Orbit

Orbit type: Main Belt

Note: WebGL enabled browser required.

epoch2023-09-13.0
epoch JD2460200.5
perihelion date2020-09-26.09491
perihelion JD2459118.59491
argument of perihelion (°)68.96511
ascending node (°)15.75151
inclination (°)5.67501
eccentricity0.1207169
perihelion distance (AU)2.7583221
Tisserand w.r.t. Jupiter3.2
ΔV w.r.t. Earth (km/sec)10.5
semimajor axis (AU)3.1370127
mean anomaly (°)191.91927
mean daily motion (°/day)0.17739010
aphelion distance (AU)3.516
period (years)5.56
P-vector [x]0.09332366
P-vector [y]0.87283125
P-vector [z]0.47901597
Q-vector [x]-0.99527388
Q-vector [y]0.06881138
Q-vector [z]0.06851938
absolute magnitude15.04
phase slope0.15
uncertainty0
referenceMPO 778355
observations used804
oppositions15
arc length (days)11172
first opposition used1991
last opposition used2022
residual rms (arc-secs)0.73
perturbers coarse indicatorM-v
perturbers precise indicator003Ek
first observation date used1991-10-01.0
last observation date used2022-05-03.0
computer nameMPCLINUX
JD of orbit computation2456966.754310
perihelion JD uncertainty (days)2.3970E-04
argument of perihelion uncertainty (°)7.0106E-05
ascending node uncertainty (°)5.6534E-05
inclination uncertainty (°)9.5180E-06
eccentricity uncertainty 5.0126E-08
perihelion distance uncertainty (AU)1.6151E-07
Minimum Orbit Intersection Distances (in AU)
for orbit epoch: 2460200.5, reference: E2023-VB5
Mercury2.45022
Venus2.04177
Earth1.7796
Mars1.17972
Jupiter1.72911
Saturn6.31429
Uranus15.3054
Neptune26.7769

Observations

823 total observations over interval: 1991 10 01.17186 – 2022 05 03.303159
These data are available for download (format description).

Date (UT) J2000 RA J2000 Dec Magn Location Ref
1991 10 01.17186 23 57 18.27 -02 44 21.6   691 – Steward Observatory, Kitt Peak-Spacewatch MPS 175548
1991 10 01.19293 23 57 17.28 -02 44 25.7   691 – Steward Observatory, Kitt Peak-Spacewatch MPS 175548
1991 10 01.21568 23 57 16.18 -02 44 30.0 20.2 V 691 – Steward Observatory, Kitt Peak-Spacewatch MPS 175548
2002 08 29.49405 23 22 54.35 -08 46 18.6 19.4   644 – Palomar Mountain/NEAT MPS 131737
2002 08 29.50466 23 22 53.87 -08 46 20.7 19.8   644 – Palomar Mountain/NEAT MPS 131737
2002 08 29.51526 23 22 53.40 -08 46 22.5 19.8   644 – Palomar Mountain/NEAT MPS 131737
2003 11 20.33308 05 23 01.20 +30 21 36.4 18.7   704 – Lincoln Laboratory ETS, New Mexico MPS 131737
2003 11 20.34606 05 23 00.65 +30 21 39.5 19.6   704 – Lincoln Laboratory ETS, New Mexico MPS 131737
2003 11 20.35923 05 23 00.04 +30 21 40.1 19.5   704 – Lincoln Laboratory ETS, New Mexico MPS 131737
2003 11 20.37204 05 22 59.46 +30 21 41.1 19.5   704 – Lincoln Laboratory ETS, New Mexico MPS 131737
2003 11 20.38530 05 22 58.79 +30 21 42.6 19.6   704 – Lincoln Laboratory ETS, New Mexico MPS 131737
2003 12 04.27566 05 10 55.09 +30 36 19.4 18.8   704 – Lincoln Laboratory ETS, New Mexico MPS 131737
2003 12 04.28784 05 10 54.41 +30 36 18.9 19.6   704 – Lincoln Laboratory ETS, New Mexico MPS 131737
2003 12 04.31222 05 10 52.86 +30 36 21.8 19.5   704 – Lincoln Laboratory ETS, New Mexico MPS 131737
2003 12 04.32430 05 10 52.15 +30 36 21.2 19.4   704 – Lincoln Laboratory ETS, New Mexico MPS 131737
2003 12 17.26265 04 58 22.83 +30 32 35.9 18.7   704 – Lincoln Laboratory ETS, New Mexico MPS 131737
2003 12 17.27532 04 58 22.13 +30 32 34.4 19.0   704 – Lincoln Laboratory ETS, New Mexico MPS 131737
2003 12 17.28802 04 58 21.38 +30 32 33.9 18.7   704 – Lincoln Laboratory ETS, New Mexico MPS 131737
2003 12 17.30068 04 58 20.61 +30 32 33.3 19.0   704 – Lincoln Laboratory ETS, New Mexico MPS 131737
2003 12 17.31971 04 58 19.50 +30 32 32.0 19.1   704 – Lincoln Laboratory ETS, New Mexico MPS 131737
2003 12 23.21164 04 52 58.08 +30 25 40.7 19.6   704 – Lincoln Laboratory ETS, New Mexico MPS 131737
2003 12 23.22488 04 52 57.43 +30 25 38.6 19.5   704 – Lincoln Laboratory ETS, New Mexico MPS 131737
2003 12 23.23784 04 52 56.68 +30 25 38.3 19.7   704 – Lincoln Laboratory ETS, New Mexico MPS 131737
2003 12 23.25082 04 52 56.01 +30 25 36.0 19.5   704 – Lincoln Laboratory ETS, New Mexico MPS 131737
2003 12 23.26369 04 52 55.32 +30 25 37.4 19.6   704 – Lincoln Laboratory ETS, New Mexico MPS 131737
2005 03 03.33662 11 47 28.70 +05 11 02.0 19.1 R 703 – Catalina Sky Survey MPS 128096
2005 03 03.34692 11 47 28.21 +05 11 04.6 18.7 R 703 – Catalina Sky Survey MPS 128096
2005 03 03.35720 11 47 27.72 +05 11 07.5 18.4 R 703 – Catalina Sky Survey MPS 128096
2005 03 03.36752 11 47 27.10 +05 11 08.3 18.6 R 703 – Catalina Sky Survey MPS 128096
2005 03 04.36105 11 46 42.16 +05 14 45.4 19.1   704 – Lincoln Laboratory ETS, New Mexico MPS 128096
2005 03 04.37249 11 46 41.68 +05 14 48.3 19.3   704 – Lincoln Laboratory ETS, New Mexico MPS 128096
2005 03 04.38394 11 46 41.10 +05 14 49.9 19.3   704 – Lincoln Laboratory ETS, New Mexico MPS 128096
2005 03 04.39662 11 46 40.51 +05 14 52.5 19.1   704 – Lincoln Laboratory ETS, New Mexico MPS 128096
2005 03 12.33198 11 40 27.82 +05 43 47.1 19.2   704 – Lincoln Laboratory ETS, New Mexico MPS 130248
2005 03 12.34417 11 40 27.20 +05 43 49.6 19.6   704 – Lincoln Laboratory ETS, New Mexico MPS 130248
2005 03 12.35573 11 40 26.65 +05 43 52.1 19.5   704 – Lincoln Laboratory ETS, New Mexico MPS 130248
2005 03 12.36675 11 40 26.08 +05 43 54.3 19.5   704 – Lincoln Laboratory ETS, New Mexico MPS 130248
2005 03 12.37777 11 40 25.58 +05 43 56.9 19.2   704 – Lincoln Laboratory ETS, New Mexico MPS 130248
2005 03 30.29150 11 26 44.32 +06 39 41.4 18.5 R 703 – Catalina Sky Survey MPS 130248
2005 03 30.30081 11 26 43.89 +06 39 42.9 18.1 R 703 – Catalina Sky Survey MPS 130248
2005 03 30.31014 11 26 43.57 +06 39 45.2 19.2 R 703 – Catalina Sky Survey MPS 130248
2005 03 30.31945 11 26 43.15 +06 39 46.3 18.8 R 703 – Catalina Sky Survey MPS 130248
2005 04 10.20358 11 20 03.76 +06 59 59.5 19.6 R 695 – Kitt Peak MPS 133131
2005 04 10.32526 11 19 59.81 +07 00 08.3   695 – Kitt Peak MPS 133131
2005 05 09.15058 11 13 13.66 +06 45 10.8 19.6 R G96 – Mt. Lemmon Survey MPS 134009
2005 05 09.15900 11 13 13.70 +06 45 09.7 19.4 R G96 – Mt. Lemmon Survey MPS 134009
2005 05 09.16742 11 13 13.73 +06 45 08.5 19.9 R G96 – Mt. Lemmon Survey MPS 134009
2005 05 09.17587 11 13 13.76 +06 45 07.4 20.0 R G96 – Mt. Lemmon Survey MPS 134009
2008 09 06.35735 01 38 22.84 +09 50 32.8 19.6 V G96 – Mt. Lemmon Survey MPS 255865
2008 09 06.36528 01 38 22.70 +09 50 32.4 19.6 V G96 – Mt. Lemmon Survey MPS 255865
2008 09 06.37324 01 38 22.52 +09 50 32.4 19.6 V G96 – Mt. Lemmon Survey MPS 255865
2008 09 06.38125 01 38 22.38 +09 50 32.3 19.6 V G96 – Mt. Lemmon Survey MPS 255865
2008 09 20.35287 01 32 00.85 +09 37 45.1 19.1 V G96 – Mt. Lemmon Survey MPS 256704
2008 09 20.36149 01 32 00.56 +09 37 44.4 19.1 V G96 – Mt. Lemmon Survey MPS 256704
2008 09 20.37018 01 32 00.20 +09 37 43.5 19.0 V G96 – Mt. Lemmon Survey MPS 256704
2008 09 20.37882 01 31 59.91 +09 37 42.6 19.4 V G96 – Mt. Lemmon Survey MPS 256704
2008 09 21.24903 01 31 28.81 +09 36 15.7 19.6 V 691 – Steward Observatory, Kitt Peak-Spacewatch MPS 256704
2008 09 21.26664 01 31 28.18 +09 36 13.7 19.6 V 691 – Steward Observatory, Kitt Peak-Spacewatch MPS 256704
2008 09 21.28459 01 31 27.50 +09 36 12.2 19.5 V 691 – Steward Observatory, Kitt Peak-Spacewatch MPS 256704
2008 09 24.28942 01 29 33.64 +09 30 39.0 19.2   704 – Lincoln Laboratory ETS, New Mexico MPS 256704
2008 09 24.30138 01 29 33.18 +09 30 38.4 19.4   704 – Lincoln Laboratory ETS, New Mexico MPS 256704
2008 09 24.31334 01 29 32.72 +09 30 37.1 19.8   704 – Lincoln Laboratory ETS, New Mexico MPS 256704
2008 09 24.32532 01 29 32.21 +09 30 35.9 20.2   704 – Lincoln Laboratory ETS, New Mexico MPS 256704
2008 09 25.24176 01 28 55.73 +09 28 43.9 19.5 V 691 – Steward Observatory, Kitt Peak-Spacewatch MPS 257944
2008 09 25.25938 01 28 55.00 +09 28 41.8 19.4 V 691 – Steward Observatory, Kitt Peak-Spacewatch MPS 257944
2008 09 25.27700 01 28 54.31 +09 28 39.2 19.3 V 691 – Steward Observatory, Kitt Peak-Spacewatch MPS 257944
2008 09 30.28533 01 25 22.06 +09 17 19.7 18.9   704 – Lincoln Laboratory ETS, New Mexico MPS 257944
2008 09 30.29754 01 25 21.45 +09 17 18.3 19.5   704 – Lincoln Laboratory ETS, New Mexico MPS 257944
2008 09 30.30976 01 25 20.94 +09 17 16.0 19.8   704 – Lincoln Laboratory ETS, New Mexico MPS 257944
2008 09 30.32208 01 25 20.33 +09 17 13.7 19.4   704 – Lincoln Laboratory ETS, New Mexico MPS 257944
2008 09 30.33437 01 25 19.77 +09 17 12.8 19.7   704 – Lincoln Laboratory ETS, New Mexico MPS 257944
2008 10 02.35302 01 23 48.98 +09 12 07.7 19.2 V 703 – Catalina Sky Survey MPS 259267
2008 10 02.36154 01 23 48.58 +09 12 07.0 19.1 V 703 – Catalina Sky Survey MPS 259267
2008 10 02.37010 01 23 48.15 +09 12 05.5 18.9 V 703 – Catalina Sky Survey MPS 259267
2008 10 02.37859 01 23 47.83 +09 12 04.0 18.9 V 703 – Catalina Sky Survey MPS 259267
2008 10 07.22811 01 20 00.78 +08 58 53.9 19.0 V 691 – Steward Observatory, Kitt Peak-Spacewatch MPS 259267
2008 10 07.24575 01 19 59.89 +08 58 50.5 19.1 V 691 – Steward Observatory, Kitt Peak-Spacewatch MPS 259267
2008 10 07.26340 01 19 58.99 +08 58 47.7 19.2 V 691 – Steward Observatory, Kitt Peak-Spacewatch MPS 259267
2008 10 21.21804 01 08 40.84 +08 17 09.8 18.9 V G96 – Mt. Lemmon Survey MPS 260600
2008 10 21.22300 01 08 40.59 +08 17 08.9 18.9 V G96 – Mt. Lemmon Survey MPS 260600
2008 10 21.22798 01 08 40.34 +08 17 07.9 18.9 V G96 – Mt. Lemmon Survey MPS 260600
2008 10 21.23300 01 08 40.12 +08 17 07.0 18.9 V G96 – Mt. Lemmon Survey MPS 260600
2008 10 25.24874 01 05 32.46 +08 05 20.2 19.2   704 – Lincoln Laboratory ETS, New Mexico MPS 261549
2008 10 25.26025 01 05 31.98 +08 05 16.6 19.8   704 – Lincoln Laboratory ETS, New Mexico MPS 261549
2008 10 25.27181 01 05 31.36 +08 05 16.2 19.5   704 – Lincoln Laboratory ETS, New Mexico MPS 261549
2008 10 25.29486 01 05 30.27 +08 05 12.7 19.6   704 – Lincoln Laboratory ETS, New Mexico MPS 261549
